Location: Recife
(8.0585°S, 34.8848°W)
Time: 20:19:04
(UTC-03:00)

S-56A Canister/Altair - Pass Details

Date: 22 April 2026
Orbit: 633 x 2484 km, 38.9° (Epoch: 16 May)

Event Time Altitude Azimuth Distance (km) Brightness Sun altitude
Rises 08:58:24 0° 337° (NNW) 6,094 12.2 49.8°
Reaches altitude 10° 09:03:33 10° 349° (NNW) 5,129 12.0 50.9°
Maximum altitude 09:14:50 26° 38° (NE) 3,808 12.3 53.2°
Drops below altitude 10° 09:24:43 10° 88° (E) 4,502 12.1 55.2°
Sets 09:28:45 0° 100° (E) 5,241 12.1 56.0°
